| time (UTC) | temp C | wind direction | speed KPH | gust KPH | rain 1hr cm | rain 24hr cm | rain mn cm | humidity % | barometer mb |
| 20260505041415 | 9 | 205 | 0.0 | 8.0 | 0.00 | 0.08 | 0.00 | 90 | 1013.2 |
| 20260505040918 | 9 | 205 | 3.2 | 9.7 | 0.00 | 0.08 | 0.00 | 90 | 1013.3 |
| 20260505040418 | 9 | 205 | 4.8 | 6.4 | 0.00 | 0.08 | 0.00 | 90 | 1013.3 |
| 20260505035915 | 9 | 205 | 0.0 | 8.0 | 0.00 | 0.05 | 0.00 | 90 | 1013.3 |
| 20260505035418 | 9 | 205 | 1.6 | 4.8 | 0.00 | 0.05 | 0.00 | 90 | 1013.4 |
| 20260505034918 | 9 | 205 | 0.0 | 6.4 | 0.00 | 0.05 | 0.00 | 90 | 1013.5 |
| 20260505034418 | 9 | 205 | 3.2 | 8.0 | 0.00 | 0.05 | 0.00 | 90 | 1013.5 |
| 20260505033915 | 9 | 205 | 1.6 | 8.0 | 0.03 | 0.05 | 0.00 | 90 | 1013.6 |
| 20260505033415 | 9 | 205 | 4.8 | 8.0 | 0.03 | 0.05 | 0.00 | 90 | 1013.7 |
| 20260505032918 | 9 | 205 | 4.8 | 11.3 | 0.03 | 0.05 | 0.00 | 90 | 1013.8 |
| 20260505032418 | 10 | 206 | 3.2 | 9.7 | 0.05 | 0.05 | 0.00 | 90 | 1013.9 |
| 20260505031918 | 10 | 205 | 4.8 | 8.0 | 0.05 | 0.05 | 0.00 | 91 | 1013.8 |
| 20260505031418 | 10 | 205 | 3.2 | 9.7 | 0.05 | 0.05 | 0.00 | 91 | 1013.9 |
| 20260505030918 | 10 | 205 | 3.2 | 8.0 | 0.05 | 0.05 | 0.00 | 91 | 1013.9 |
| 20260505030418 | 10 | 205 | 0.0 | 8.0 | 0.05 | 0.05 | 0.00 | 91 | 1014.0 |
| 20260505025915 | 10 | 205 | 3.2 | 8.0 | 0.03 | 0.03 | 0.00 | 90 | 1014.1 |
| 20260505025418 | 10 | 205 | 4.8 | 6.4 | 0.03 | 0.03 | 0.00 | 90 | 1014.2 |
| 20260505024918 | 10 | 205 | 6.4 | 6.4 | 0.03 | 0.03 | 0.00 | 90 | 1014.2 |
| 20260505024415 | 10 | 205 | 3.2 | 9.7 | 0.03 | 0.03 | 0.00 | 90 | 1014.3 |
| 20260505023918 | 10 | 209 | 6.4 | 9.7 | 0.00 | 0.00 | 0.00 | 89 | 1014.3 |
| 20260505023418 | 10 | 209 | 1.6 | 9.7 | 0.00 | 0.00 | 0.00 | 88 | 1014.4 |
| 20260505022918 | 10 | 209 | 3.2 | 11.3 | 0.00 | 0.00 | 0.00 | 88 | 1014.5 |
| 20260505022418 | 10 | 209 | 1.6 | 8.0 | 0.00 | 0.00 | 0.00 | 87 | 1014.7 |
| 20260505021915 | 10 | 209 | 4.8 | 8.0 | 0.00 | 0.00 | 0.00 | 86 | 1014.7 |
| 20260505021418 | 11 | 209 | 4.8 | 9.7 | 0.00 | 0.00 | 0.00 | 86 | 1014.8 |
| 20260505020918 | 11 | 209 | 3.2 | 3.2 | 0.00 | 0.00 | 0.00 | 86 | 1015.0 |
| 20260505020415 | 11 | 209 | 0.0 | 8.0 | 0.00 | 0.00 | 0.00 | 85 | 1014.9 |
| 20260505015918 | 11 | 209 | 4.8 | 9.7 | 0.00 | 0.00 | 0.00 | 85 | 1015.0 |
| 20260505015418 | 11 | 211 | 1.6 | 6.4 | 0.00 | 0.00 | 0.00 | 85 | 1015.1 |
| 20260505014918 | 11 | 211 | 6.4 | 9.7 | 0.00 | 0.00 | 0.00 | 85 | 1015.1 |
| 20260505014418 | 11 | 217 | 3.2 | 9.7 | 0.00 | 0.00 | 0.00 | 85 | 1015.3 |
| 20260505013918 | 11 | 221 | 6.4 | 11.3 | 0.00 | 0.00 | 0.00 | 86 | 1015.3 |
| 20260505013418 | 11 | 226 | 0.0 | 8.0 | 0.00 | 0.00 | 0.00 | 86 | 1015.5 |
| 20260505012918 | 11 | 226 | 6.4 | 8.0 | 0.00 | 0.00 | 0.00 | 87 | 1015.4 |
| 20260505012418 | 11 | 226 | 6.4 | 6.4 | 0.00 | 0.00 | 0.00 | 86 | 1015.5 |
| 20260505011918 | 11 | 226 | 1.6 | 6.4 | 0.00 | 0.00 | 0.00 | 86 | 1015.5 |
| 20260505011418 | 11 | 226 | 0.0 | 4.8 | 0.00 | 0.00 | 0.00 | 86 | 1015.5 |
| 20260505010917 | 11 | 226 | 3.2 | 6.4 | 0.00 | 0.00 | 0.00 | 86 | 1015.6 |
| 20260505010418 | 11 | 226 | 3.2 | 6.4 | 0.00 | 0.00 | 0.00 | 86 | 1015.7 |
| 20260505005915 | 11 | 226 | 0.0 | 8.0 | 0.00 | 0.00 | 0.00 | 87 | 1015.8 |
| 20260505005417 | 11 | 226 | 8.0 | 8.0 | 0.00 | 0.00 | 0.00 | 87 | 1016.0 |
| 20260505004917 | 11 | 226 | 0.0 | 6.4 | 0.00 | 0.00 | 0.00 | 87 | 1016.1 |
| 20260505004414 | 11 | 226 | 1.6 | 6.4 | 0.00 | 0.00 | 0.00 | 87 | 1016.1 |
| 20260505003917 | 11 | 226 | 1.6 | 6.4 | 0.00 | 0.00 | 0.00 | 87 | 1016.3 |
| 20260505003417 | 11 | 226 | 3.2 | 8.0 | 0.00 | 0.00 | 0.00 | 87 | 1016.3 |
| 20260505002917 | 11 | 227 | 6.4 | 6.4 | 0.00 | 0.00 | 0.00 | 86 | 1016.4 |
| 20260505002417 | 11 | 227 | 4.8 | 11.3 | 0.00 | 0.00 | 0.00 | 86 | 1016.6 |
| 20260505001917 | 11 | 231 | 11.3 | 11.3 | 0.00 | 0.00 | 0.00 | 87 | 1016.7 |
| 20260505001417 | 11 | 212 | 4.8 | 8.0 | 0.00 | 0.00 | 0.00 | 86 | 1016.7 |
| 20260505000917 | 11 | 213 | 4.8 | 11.3 | 0.00 | 0.00 | 0.00 | 86 | 1016.8 |
| 20260505000417 | 11 | 213 | 3.2 | 9.7 | 0.00 | 0.00 | 0.00 | 86 | 1016.8 |
| 20260504235917 | 11 | 214 | 8.0 | 9.7 | 0.00 | 0.00 | 0.00 | 86 | 1017.0 |
| 20260504235417 | 11 | 215 | 8.0 | 8.0 | 0.00 | 0.00 | 0.00 | 86 | 1017.0 |
| 20260504234917 | 11 | 216 | 4.8 | 6.4 | 0.00 | 0.00 | 0.00 | 86 | 1017.1 |
| 20260504234417 | 11 | 216 | 3.2 | 6.4 | 0.00 | 0.00 | 0.00 | 85 | 1017.1 |
| 20260504233917 | 11 | 216 | 3.2 | 4.8 | 0.00 | 0.00 | 0.00 | 85 | 1017.2 |
| 20260504233417 | 11 | 216 | 1.6 | 8.0 | 0.00 | 0.00 | 0.00 | 86 | 1017.3 |
| 20260504232917 | 11 | 216 | 1.6 | 4.8 | 0.00 | 0.00 | 0.00 | 86 | 1017.5 |
| 20260504232417 | 11 | 216 | 0.0 | 4.8 | 0.00 | 0.00 | 0.00 | 86 | 1017.7 |
| 20260504231914 | 11 | 216 | 0.0 | 8.0 | 0.00 | 0.00 | 0.00 | 85 | 1017.7 |
| 20260504231417 | 11 | 216 | 8.0 | 8.0 | 0.00 | 0.00 | 0.00 | 85 | 1017.7 |
| 20260504230917 | 11 | 216 | 4.8 | 8.0 | 0.00 | 0.00 | 0.00 | 85 | 1017.7 |
| 20260504230417 | 11 | 217 | 6.4 | 8.0 | 0.00 | 0.00 | 0.00 | 85 | 1017.9 |
| 20260504225917 | 11 | 217 | 6.4 | 6.4 | 0.00 | 0.00 | 0.00 | 85 | 1018.0 |
| 20260504225417 | 11 | 217 | 3.2 | 9.7 | 0.00 | 0.00 | 0.00 | 85 | 1018.0 |
| 20260504224917 | 11 | 217 | 3.2 | 4.8 | 0.00 | 0.00 | 0.00 | 85 | 1017.9 |
| 20260504224417 | 11 | 217 | 0.0 | 9.7 | 0.00 | 0.00 | 0.00 | 85 | 1018.0 |
| 20260504223917 | 11 | 217 | 0.0 | 0.0 | 0.00 | 0.00 | 0.00 | 85 | 1018.0 |
| 20260504223417 | 11 | 217 | 0.0 | 4.8 | 0.00 | 0.00 | 0.00 | 85 | 1018.0 |
| 20260504222917 | 11 | 217 | 1.6 | 4.8 | 0.00 | 0.00 | 0.00 | 85 | 1018.2 |
| 20260504222417 | 11 | 217 | 1.6 | 9.7 | 0.00 | 0.00 | 0.00 | 85 | 1018.1 |
| 20260504221917 | 11 | 217 | 0.0 | 6.4 | 0.00 | 0.00 | 0.00 | 84 | 1018.2 |
| 20260504221417 | 11 | 217 | 6.4 | 9.7 | 0.00 | 0.00 | 0.00 | 84 | 1018.3 |
| 20260504220917 | 11 | 186 | 6.4 | 9.7 | 0.00 | 0.00 | 0.00 | 84 | 1018.3 |
| 20260504220414 | 11 | 185 | 4.8 | 11.3 | 0.00 | 0.00 | 0.00 | 83 | 1018.4 |
| 20260504215914 | 11 | 205 | 3.2 | 9.7 | 0.00 | 0.00 | 0.00 | 83 | 1018.4 |
| 20260504215417 | 11 | 211 | 8.0 | 9.7 | 0.00 | 0.00 | 0.00 | 82 | 1018.4 |
| 20260504214917 | 11 | 195 | 6.4 | 11.3 | 0.00 | 0.00 | 0.00 | 81 | 1018.4 |
| 20260504214417 | 11 | 207 | 3.2 | 9.7 | 0.00 | 0.00 | 0.00 | 81 | 1018.5 |
| 20260504213917 | 11 | 190 | 4.8 | 11.3 | 0.00 | 0.00 | 0.00 | 81 | 1018.5 |
| 20260504213417 | 11 | 184 | 4.8 | 12.9 | 0.00 | 0.00 | 0.00 | 80 | 1018.5 |
| 20260504212917 | 12 | 205 | 6.4 | 8.0 | 0.00 | 0.00 | 0.00 | 80 | 1018.6 |
| 20260504212417 | 12 | 207 | 3.2 | 8.0 | 0.00 | 0.00 | 0.00 | 79 | 1018.6 |
| 20260504211917 | 12 | 167 | 12.9 | 12.9 | 0.00 | 0.00 | 0.00 | 79 | 1018.6 |
| 20260504211417 | 12 | 190 | 3.2 | 12.9 | 0.00 | 0.00 | 0.00 | 79 | 1018.5 |
| 20260504210914 | 12 | 176 | 3.2 | 12.9 | 0.00 | 0.00 | 0.00 | 79 | 1018.6 |
| 20260504210417 | 12 | 208 | 4.8 | 9.7 | 0.00 | 0.00 | 0.00 | 79 | 1018.6 |
| 20260504205917 | 12 | 211 | 4.8 | 8.0 | 0.00 | 0.00 | 0.00 | 79 | 1018.7 |
| 20260504205417 | 12 | 203 | 6.4 | 14.5 | 0.00 | 0.00 | 0.00 | 79 | 1018.7 |
| 20260504204917 | 12 | 215 | 3.2 | 14.5 | 0.00 | 0.00 | 0.00 | 79 | 1018.8 |
| 20260504204417 | 12 | 205 | 1.6 | 12.9 | 0.00 | 0.00 | 0.00 | 79 | 1018.7 |
| 20260504203917 | 12 | 191 | 8.0 | 12.9 | 0.00 | 0.00 | 0.00 | 79 | 1018.8 |
| 20260504203417 | 12 | 209 | 3.2 | 9.7 | 0.00 | 0.00 | 0.00 | 79 | 1018.7 |
| 20260504202914 | 12 | 186 | 4.8 | 9.7 | 0.00 | 0.00 | 0.00 | 79 | 1018.7 |
| 20260504202417 | 12 | 196 | 6.4 | 11.3 | 0.00 | 0.00 | 0.00 | 79 | 1018.8 |
| 20260504201917 | 12 | 199 | 6.4 | 12.9 | 0.00 | 0.00 | 0.00 | 79 | 1018.9 |
| 20260504201417 | 12 | 200 | 4.8 | 8.0 | 0.00 | 0.00 | 0.00 | 80 | 1018.7 |
| 20260504200917 | 12 | 203 | 4.8 | 12.9 | 0.00 | 0.00 | 0.00 | 79 | 1018.9 |
| 20260504200417 | 12 | 161 | 6.4 | 16.1 | 0.00 | 0.00 | 0.00 | 80 | 1018.6 |
| 20260504195917 | 12 | 204 | 4.8 | 8.0 | 0.00 | 0.00 | 0.00 | 80 | 1018.6 |
| 20260504195417 | 12 | 209 | 1.6 | 11.3 | 0.00 | 0.00 | 0.00 | 81 | 1018.7 |
| 20260504194920 | 12 | 179 | 3.2 | 8.0 | 0.00 | 0.00 | 0.00 | 81 | 1018.5 |
| 20260504194426 | 12 | 201 | 3.2 | 12.9 | 0.00 | 0.00 | 0.00 | 80 | 1018.6 |
| 20260504193920 | 12 | 187 | 6.4 | 14.5 | 0.00 | 0.00 | 0.00 | 80 | 1018.6 |
| 20260504193418 | 12 | 190 | 4.8 | 6.4 | 0.00 | 0.00 | 0.00 | 79 | 1018.5 |
| 20260504192917 | 12 | 190 | 1.6 | 11.3 | 0.00 | 0.00 | 0.00 | 78 | 1018.5 |
| 20260504192417 | 13 | 190 | 4.8 | 14.5 | 0.00 | 0.00 | 0.00 | 77 | 1018.4 |
| 20260504191917 | 13 | 196 | 4.8 | 11.3 | 0.00 | 0.00 | 0.00 | 76 | 1018.4 |
| 20260504191417 | 13 | 138 | 3.2 | 8.0 | 0.00 | 0.00 | 0.00 | 77 | 1018.3 |
| 20260504190918 | 13 | 202 | 0.0 | 9.7 | 0.00 | 0.00 | 0.00 | 77 | 1018.3 |
| 20260504190418 | 13 | 146 | 0.0 | 11.3 | 0.00 | 0.00 | 0.00 | 77 | 1018.1 |
| 20260504185914 | 13 | 157 | 4.8 | 6.4 | 0.00 | 0.00 | 0.00 | 76 | 1018.0 |
| 20260504185417 | 13 | 119 | 0.0 | 4.8 | 0.00 | 0.00 | 0.00 | 75 | 1018.1 |
| 20260504184917 | 13 | 157 | 0.0 | 3.2 | 0.00 | 0.00 | 0.00 | 75 | 1018.1 |
| 20260504184414 | 13 | 155 | 1.6 | 9.7 | 0.00 | 0.00 | 0.00 | 74 | 1018.2 |
| 20260504183917 | 13 | 168 | 8.0 | 8.0 | 0.00 | 0.00 | 0.00 | 74 | 1018.2 |
| 20260504183417 | 13 | 169 | 0.0 | 14.5 | 0.00 | 0.00 | 0.00 | 73 | 1018.1 |
| 20260504182917 | 14 | 168 | 3.2 | 14.5 | 0.00 | 0.00 | 0.00 | 72 | 1018.1 |
| 20260504182417 | 14 | 187 | 6.4 | 14.5 | 0.00 | 0.00 | 0.00 | 72 | 1018.2 |
| 20260504181917 | 14 | 132 | 0.0 | 14.5 | 0.00 | 0.00 | 0.00 | 72 | 1018.1 |
| 20260504181417 | 14 | 190 | 6.4 | 17.7 | 0.00 | 0.00 | 0.00 | 71 | 1018.1 |
| 20260504180917 | 14 | 215 | 0.0 | 9.7 | 0.00 | 0.00 | 0.00 | 70 | 1018.1 |
| 20260504180414 | 15 | 173 | 3.2 | 14.5 | 0.00 | 0.00 | 0.00 | 69 | 1018.1 |
| 20260504175917 | 15 | 190 | 1.6 | 1.6 | 0.00 | 0.00 | 0.00 | 67 | 1018.1 |
| 20260504175417 | 15 | 171 | 3.2 | 14.5 | 0.00 | 0.00 | 0.00 | 67 | 1018.0 |
| 20260504174917 | 15 | 174 | 4.8 | 9.7 | 0.00 | 0.00 | 0.00 | 67 | 1017.9 |
| 20260504174417 | 15 | 148 | 0.0 | 11.3 | 0.00 | 0.00 | 0.00 | 66 | 1017.9 |
| 20260504173917 | 15 | 212 | 4.8 | 9.7 | 0.00 | 0.00 | 0.00 | 64 | 1017.9 |
| 20260504173417 | 15 | 184 | 4.8 | 17.7 | 0.00 | 0.00 | 0.00 | 63 | 1017.9 |
| 20260504172917 | 15 | 217 | 8.0 | 16.1 | 0.00 | 0.00 | 0.00 | 63 | 1017.7 |
| 20260504172417 | 15 | 212 | 8.0 | 16.1 | 0.00 | 0.00 | 0.00 | 62 | 1017.8 |
| 20260504171917 | 15 | 197 | 9.7 | 12.9 | 0.00 | 0.00 | 0.00 | 61 | 1017.7 |
| 20260504171417 | 16 | 185 | 9.7 | 16.1 | 0.00 | 0.00 | 0.00 | 61 | 1017.8 |
| 20260504170917 | 16 | 155 | 3.2 | 17.7 | 0.00 | 0.00 | 0.00 | 61 | 1017.7 |
| 20260504170414 | 16 | 200 | 9.7 | 14.5 | 0.00 | 0.00 | 0.00 | 60 | 1017.8 |
| 20260504160414 | 16 | 193 | 8.0 | 14.5 | 0.00 | 0.00 | 0.00 | 57 | 1017.6 |
| 20260504150917 | 17 | 213 | 9.7 | 16.1 | 0.00 | 0.00 | 0.00 | 53 | 1017.7 |
| 20260504150417 | 17 | 150 | 0.0 | 11.3 | 0.00 | 0.00 | 0.00 | 52 | 1017.7 |
| 20260504140916 | 17 | 172 | 12.9 | 27.4 | 0.00 | 0.00 | 0.00 | 48 | 1017.7 |
| 20260504140417 | 17 | 154 | 19.3 | 20.9 | 0.00 | 0.00 | 0.00 | 47 | 1017.9 |
| 20260504130416 | 18 | 183 | 0.0 | 16.1 | 0.00 | 0.00 | 0.00 | 44 | 1017.8 |
| 20260504110416 | 16 | 155 | 6.4 | 22.5 | 0.00 | 0.00 | 0.00 | 45 | 1017.9 |
| 20260504100416 | 16 | 162 | 11.3 | 27.4 | 0.00 | 0.00 | 0.00 | 47 | 1018.3 |
| 20260504081916 | 13 | 205 | 3.2 | 16.1 | 0.00 | 0.00 | 0.00 | 64 | 1116.0 |
| 20260504081416 | 13 | 211 | 3.2 | 17.7 | 0.00 | 0.00 | 0.00 | 65 | 1115.2 |
| 20260504080916 | 13 | 155 | 3.2 | 11.3 | 0.00 | 0.00 | 0.00 | 64 | 1114.4 |
| 20260504080416 | 13 | 181 | 8.0 | 16.1 | 0.00 | 0.00 | 0.00 | 65 | 1113.9 |
| 20260504050416 | 7 | 259 | 0.0 | 0.0 | 0.00 | 0.00 | 0.00 | 82 | 1109.2 |
| 20260504045916 | 7 | 259 | 0.0 | 0.0 | 0.00 | 0.00 | 0.00 | 81 | 1109.2 |